SL-8 DEB, 1335

Orbit data source: Space-Track

SL-8 DEB, 1335 is space debris in LEO originally from a launch on Mon, 15 Mar 1965 UTC launched from the Tyuratam Missile And Space Complex (TTMTR). Debris objects in space refer to the collection of defunct objects orbiting the Earth. Examples of debris include non-operational satellites, rocket bodies, and fragments generated from explosions, collisions, or faulty payload assembly.

Loading next visibility...
Identifier
1335, 1965-020E
Orbit
LEO
Last TLE update
23 hours ago
Origin
Manufacturer
Unknown
Mission
Spacecraft
Bus & Motor
Unknown
Mass
Unknown
Launch date (UTC)
1965-03-15 (60 years ago)
Launch vehicle
Unknown
Launch site
Tyuratam Missile And Space Complex (TTMTR)
Object type
Payload
Rocket body
Debris
Shape & HBR
Unknown
Radar Cross Section
Medium (>0.1 m² and <1 m²)

Expand to show TLE details & history

TLE from 23 hours ago
0 SL-8 DEB
1 01335U 65020E   25114.89816484  .00004071  00000-0  11906-2 0  9997
2 01335  56.0751 328.8295 0533009 144.7902 218.9539 13.85721981951964
Epoch: 2025-04-24T21:33Z
Definitive object data (Epoch: 2025-04-24T21:33:21.442Z)
Latitude
Longitude
152.32717°
Altitude
1,256.029 km
Speed
7.073 km/s
True Right ascension
21h 55m 19s
True Declination
0° 00' 00"
Sunlit
Object was in daylight at TLE epoch
Visualization TLE readout
Latitude
11.08844°
Longitude
156.61814°
Altitude
1,198.532 km
Speed
7.129 km/s
Apparent Right ascension
19h 45m 19s
Apparent Declination
-18° 09' 11"
Sunlit
Object is in daylight
Visualization observer readout
Local Sidereal Time
03:23:48
Azimuth
271° WNW
Elevation
-30.236°
Doppler factor
1
Orbital elements
Apogee altitude
1,333.716 km
Perigee altitude
553.22 km
Semi-major axis
7,321.605 km
Eccentricity
0.0533009
Inclination
56.0751°
RAAN
328.8295°
Arg. of periapsis
144.7902°
True anomaly
215.30589°
Mean anomaly
218.9539°
Eccentric anomaly
217.11127°
Mean motion
3.46445 °/min
BSTAR
0.0011906
Orbital period
103.91 mins
Loading maneuver chart data...
Loading SW <> Apogee altitude chart data...
Loading historical data...
Loading historical data...
Loading historical data...
Loading historical data...
Loading historical data...
Loading historical data...
Loading historical data...

SL-8 DEB Visibility forecast

Observer location: undefined°, undefined°

Span
Click to sort rows by Start time (UTC) header in descending order
Start Az.
Max El. time (UTC)
Max El. Az.
Max El.
End time (UTC)
End Az.
4 mins2025-04-25 22:17:55.597Z351.751° N2025-04-25 22:19:55.597Z23.966° NE17.717°2025-04-25 22:21:55.597Z57.139° ENE
6 mins2025-04-26 00:05:55.597Z314.026° NW2025-04-26 00:07:55.597Z309.005° NW43.203°2025-04-26 00:11:55.597Z137.041° SSE
10 mins2025-04-26 15:13:55.597Z183.594° SSW2025-04-26 15:18:55.597Z130.736° SE30.036°2025-04-26 15:23:55.597Z66.642° ENE
10 mins2025-04-26 17:01:55.597Z245.535° WSW2025-04-26 17:06:55.597Z307.367° NW39.244°2025-04-26 17:11:55.597Z35.129° NE
5 mins2025-04-26 18:53:55.597Z310.305° NW2025-04-26 18:55:55.597Z334.242° NNW17.392°2025-04-26 18:58:55.597Z13.579° NNE
|